Regional Weather Roundup
Issued by NWS Kansas City/Pleasant Hill, MO

Home | Current Version | Previous Version | Graphics & Text | Print | Product List | Glossary Off
Versions: 1 2 3 4 5 6 7 8 9 10 11 12 13 14 15 16 17 18 19 20 21 22 23 24 25 26 27 28 29 30 31 32 33 34 35 36 37 38 39 40 41 42 43 44 45 46 47 48 49 50

000
ASUS43 KEAX 011610
RWREAX

WEATHER ROUNDUP FOR EASTERN KANSAS AND NORTHWEST MISSOURI
NATIONAL WEATHER SERVICE KANSAS CITY/PLEASANT HILL MO
1100 AM CDT SUN MAY 01 2016

KSZ040-057-103>105-MOZ028-029-037-043-011700-
...KANSAS CITY METROPOLITAN AREA...

CITY           SKY/WX    TMP DP  RH WIND       PRES   REMARKS
K.C. INTL      CLOUDY    58  49  72 NW10      29.99R
K.C. DOWNTOWN  CLOUDY    60  45  57 NW10      29.98R
LEES SUMMIT    PTSUNNY   58  41  53 W10G18    29.99R
OLATHE - IXD   MOSUNNY   56  44  64 W10       30.00S
OLATHE - OJC   PTSUNNY   57  44  62 W8        29.99R
LAWRENCE       PTSUNNY   58  48  69 NW15      30.00R

$$

MOZ001>008-011>017-020>025-030>033-038>040-044>046-053-054-011700-
...NORTHERN AND CENTRAL MISSOURI...

CITY           SKY/WX    TMP DP  RH WIND       PRES   REMARKS
ST. JOSEPH     CLOUDY    52  49  89 N10       30.00R
MOSBY          CLOUDY    57  45  62 W9G16     29.98R
WARRENSBURG    MOSUNNY   59  41  51 W12G18    29.99R
WHITEMAN AFB   PTSUNNY   60  42  51 W15       29.97R
CLINTON        MOSUNNY   59  45  58 W10       30.00R
SEDALIA        MOSUNNY   61  46  57 W14       29.98S
WARSAW         NOT AVBL
CHILLICOTHE      N/A     54  51  90 CALM      29.98R
KIRKSVILLE     LGT RAIN  52  49  89 E8        29.97S

$$

MOZ041-047>049-056>058-063>065-088>090-097-011700-
...EASTERN AND SOUTHERN MISSOURI...

CITY           SKY/WX    TMP DP  RH WIND       PRES   REMARKS
ST. LOUIS INTL CLOUDY    63  57  81 NW8       29.95R
SPIRIT OF STL  CLOUDY    64  58  80 CALM      29.94R
COLUMBIA       MOSUNNY   64  54  69 SW9       29.95S
JEFFERSON CITY MOSUNNY   65  51  60 SW13      29.96R
ROLLA          SUNNY     65  50  58 W13G20    29.95R
OSAGE BEACH    MOSUNNY   63  43  48 W12       29.99R
SPRINGFIELD    SUNNY     62  41  46 W10       30.00S
BRANSON        SUNNY     63  45  51 NW8       30.02R
JOPLIN         MOSUNNY   60  46  59 W12       30.03R
WEST PLAINS    SUNNY     66  52  60 NW10      29.99R

$$

IAZ060-094-KSZ022-034>040-054-083-096-NEZ052-066-093-011700-
...KANSAS...SOUTHEAST NEBRASKA AND IOWA...

CITY           SKY/WX    TMP DP  RH WIND       PRES   REMARKS
TOPEKA         CLOUDY    54  46  74 W12       30.02R
MANHATTAN      CLOUDY    51  47  86 SW5       30.03R FOG
EMPORIA        MOSUNNY   52  43  71 W12       30.04R
CHANUTE        MOSUNNY   56  43  61 W15       30.04R
WICHITA        CLOUDY    52  44  74 NW13      30.09R
OMAHA          LGT RAIN  46  44  93 N14       30.07R FOG
LINCOLN        LGT RAIN  46  43  89 N17       30.10R
FALLS CITY     CLOUDY    50  48  93 N8        30.01R
LAMONI         RAIN      45  45 100 N7        30.00R FOG
DES MOINES     DRIZZLE   46  43  89 NE13      30.02R FOG

$$




USA.gov is the U.S. government's official web portal to all federal, state and local government web resources and services.